Jackson, TN

8:10 PM CST on November 18, 2019 (GMT -0600)
McKellar-Sipes Regional

Weather History for KMKL - July, 2019

Change the Weather History Date:

Tuesday, July 30, 2019

  Actual Average Record
Temperature  
Mean Temperature 78 °F 79 °F  
Max Temperature 86 °F 91 °F 101 °F (1999)
Min Temperature 69 °F 68 °F 53 °F (2014)
Degree Days  
Heating Degree Days 0 0  
Month to date heating degree days 0 0  
Since 1 June heating degree days 1 2  
Since 1 July heating degree days 0 0  
Cooling Degree Days 13 14  
Month to date cooling degree days 439 440  
Year to date cooling degree days 1020 994  
Since 1 June cooling degree days 760 779  
Growing Degree Days 27 (Base 50)    
Moisture  
Dew Point 72 °F    
Average Humidity 85    
Maximum Humidity 100    
Minimum Humidity 70    
Precipitation  
Precipitation 0.00 in 0.13 in 1.96 in (1982)
Month to date precipitation 10.50 4.36  
Year to date precipitation 43.32 32.74  
Sea Level Pressure  
Sea Level Pressure 30.03 in    
Wind  
Wind Speed 3 mph (West)    
Max Wind Speed 10 mph    
Max Gust Speed 13 mph    
Visibility 8 miles    
Events Fog    
T = Trace of Precipitation, MM = Missing Value Source: NWS Daily Summary

Daily Weather History Graph

Daily Weather History Graph

Search for Another Location

Airport or City:

Astronomy

Jul. 30, 2019 Rise Set
Actual Time 6:02 AM CDT 8:01 PM CDT
Civil Twilight 5:33 AM CDT 8:29 PM CDT
Nautical Twilight 4:59 AM CDT 9:03 PM CDT
Astronomical Twilight 4:22 AM CDT 9:40 PM CDT
Moon 4:12 AM CDT (7/30) 7:03 PM CDT (7/30)
Length of Visible Light 14h 55m
Length of Day
13h 59m
Waning Crescent, 3% of the Moon is Illuminated
Jul 30
Waning Crescent
Jul 31
New
Aug 7
First Quarter
Aug 15
Full
Aug 23
Last Quarter

Hourly Weather History & Observations

Time (CDT) Temp. Heat Index Dew Point Humidity Pressure Visibility Wind Dir Wind Speed Gust Speed Precip Events Conditions
12:53 AM 71.1 °F - 70.0 °F 96% 30.01 in 10.0 mi SSW 4.6 mph - N/A   Mostly Cloudy
1:53 AM 71.1 °F - 70.0 °F 96% 29.98 in 10.0 mi South 5.8 mph - N/A   Partly Cloudy
2:53 AM 70.0 °F - 70.0 °F 100% 29.99 in 10.0 mi South 4.6 mph - N/A   Clear
3:53 AM 70.0 °F - 69.1 °F 97% 29.99 in 10.0 mi Calm Calm - N/A   Scattered Clouds
4:53 AM 70.0 °F - 69.1 °F 97% 30.00 in 8.0 mi Calm Calm - N/A   Mostly Cloudy
5:45 AM 70.0 °F - 69.1 °F 97% 30.02 in 10.0 mi Calm Calm - N/A   Mostly Cloudy
5:53 AM 70.0 °F - 69.1 °F 97% 30.01 in 10.0 mi Calm Calm - N/A   Mostly Cloudy
6:53 AM 71.1 °F - 70.0 °F 96% 30.02 in 10.0 mi Calm Calm - N/A   Mostly Cloudy
7:04 AM 71.1 °F - 70.0 °F 96% 30.03 in 10.0 mi Calm Calm - N/A   Overcast
7:53 AM 73.0 °F - 72.0 °F 96% 30.04 in 10.0 mi South 5.8 mph - N/A   Overcast
8:53 AM 73.0 °F - 72.0 °F 96% 30.05 in 10.0 mi SSW 5.8 mph - N/A   Overcast
9:53 AM 75.0 °F - 72.0 °F 90% 30.05 in 10.0 mi Calm Calm - N/A   Overcast
10:53 AM 75.9 °F - 72.0 °F 87% 30.06 in 10.0 mi West 3.5 mph - N/A   Overcast
11:16 AM 75.9 °F - 73.0 °F 91% 30.06 in 10.0 mi Calm Calm - N/A   Overcast
11:53 AM 77.0 °F - 73.0 °F 88% 30.05 in 10.0 mi Variable 3.5 mph - N/A   Overcast
12:00 PM 78.1 °F - 73.0 °F 84% 30.06 in 10.0 mi Calm Calm - N/A   Overcast
12:53 PM 81.0 °F 86.7 °F 75.0 °F 82% 30.04 in 10.0 mi WSW 5.8 mph - N/A   Overcast
1:53 PM 82.0 °F 87.9 °F 73.9 °F 76% 30.03 in 10.0 mi West 6.9 mph - N/A   Overcast
2:08 PM 82.0 °F 87.9 °F 73.9 °F 76% 30.04 in 10.0 mi WNW 5.8 mph - N/A   Mostly Cloudy
2:53 PM 84.9 °F 92.1 °F 73.9 °F 69% 30.01 in 10.0 mi NW 6.9 mph - N/A   Mostly Cloudy
3:53 PM 84.0 °F 91.2 °F 73.9 °F 72% 30.00 in 10.0 mi NW 8.1 mph - N/A   Partly Cloudy
4:53 PM 84.9 °F 92.1 °F 73.9 °F 69% 29.99 in 10.0 mi NW 8.1 mph - N/A   Mostly Cloudy
5:18 PM 84.0 °F 90.2 °F 73.0 °F 69% 30.00 in 10.0 mi NNW 5.8 mph - N/A   Scattered Clouds
5:53 PM 82.9 °F 89.4 °F 73.9 °F 74% 29.98 in 10.0 mi NNW 5.8 mph - N/A   Scattered Clouds
6:53 PM 82.0 °F 87.4 °F 73.0 °F 74% 29.98 in 10.0 mi NW 5.8 mph - N/A   Clear
7:53 PM 80.1 °F 84.5 °F 73.9 °F 81% 30.00 in 10.0 mi NW 3.5 mph - N/A   Clear
8:53 PM 75.0 °F - 73.9 °F 96% 30.02 in 7.0 mi Calm Calm - N/A   Clear
9:53 PM 73.0 °F - 72.0 °F 96% 30.03 in 6.0 mi Calm Calm - N/A   Clear
10:53 PM 73.0 °F - 72.0 °F 96% 30.04 in 1.8 mi Calm Calm - N/A   Clear
11:06 PM 72.0 °F - 72.0 °F 100% 30.05 in 2.5 mi Calm Calm - N/A   Clear
11:21 PM 72.0 °F - 71.1 °F 97% 30.05 in 1.5 mi Calm Calm - N/A   Clear
11:39 PM 72.0 °F - 72.0 °F 100% 30.05 in 3.0 mi Calm Calm - N/A   Clear
11:46 PM 71.1 °F - 70.0 °F 96% 30.06 in 1.5 mi Calm Calm - N/A   Clear
11:49 PM 71.6 °F - 69.8 °F 94% 30.06 in 0.8 mi Calm Calm - N/A   Mist
11:53 PM 71.1 °F - 70.0 °F 96% 30.04 in 0.5 mi Calm Calm - N/A Fog Fog